Погода в Турунче

Турция     36°46′20″N   28°14′24″E
темп.,
°C
ветер,
м/с
пор.,
м/с
влажн.,
%
обл.,
%
осадки,
мм/ч
давл.,
гПа
погр.,
м
24 июня, чт
чт2400:00+24сз11720 0.0 101211
03:00+24сз34640 0.0 101226
06:00+23ссз44650 0.0 101136
09:00+28ссз34500 0.0 1011446
12:00+32сз56360 0.0 1010872
15:00+33с79300 0.0 10081261
18:00+29в45541 0.0 1009896
21:00+24в22770 0.0 101024
25 июня, пт
пт2500:00+24с22600 0.0 101011
03:00+25ссз44520 0.0 100928
06:00+24ссз55550 0.0 100845
09:00+29с35410 0.0 1009323
12:00+32зюз24350 0.0 1009913
15:00+34з68290 0.0 1007802
18:00+29в66510 0.0 1007705
21:00+25св33620 0.0 100822
26 июня, сб
сб2600:00+25с22510 0.0 100811
03:00+25ссз33520 0.0 100720
06:00+25ссз44550 0.0 100727
09:00+30ссз45420 0.0 1008330
12:00+33сз15360 0.0 10071058
15:00+36ссз46270 0.0 10051408
18:00+34с24350 0.0 1004684
21:00+28с22520 0.0 100615
27 июня, вс
вс2700:00+28ссз44470 0.0 100728
03:00+27ссз44470 0.0 100620
06:00+26ссз44510 0.0 100631
09:00+31ссз45380 0.0 1007333
12:00+34зсз34300 0.0 1006923
15:00+35з89290 0.0 1005786
18:00+34зсз813320 0.0 1005596
21:00+25св34740 0.0 100737
28 июня, пн
пн2800:00+26ссз22580 0.0 100811
03:00+26сз33540 0.0 100718
06:00+25сз33550 0.0 100719
09:00+30сз22450 0.0 1007221
12:00+34зюз43370 0.0 1007656
15:00+34з55350 0.0 1006539
18:00+32з58410 0.0 1006230
21:00+26св12670 0.0 100715